Time,TemperatureF,DewpointF,PressureIn,WindDirection,WindDirectionDegrees,WindSpeedMPH,WindSpeedGustMPH,Humidity,HourlyPrecipIn,Conditions,Clouds,dailyrainin,SoftwareType,DateUTC
2013-08-27 00:04:00,59.4,23.6,29.94,WSW,237,0.0,0.0,25,0.00,,,0.00,VWS V14.01,2013-08-27 07:04:00,
2013-08-27 00:09:00,59.4,23.6,29.94,SW,228,0.0,0.0,25,0.00,,,0.00,VWS V14.01,2013-08-27 07:09:00,
2013-08-27 00:15:00,59.2,23.4,29.94,WSW,239,3.1,4.9,25,0.00,,,0.00,VWS V14.01,2013-08-27 07:15:00,
2013-08-27 00:21:00,59.4,23.6,29.94,SW,218,5.8,5.8,25,0.00,,,0.00,VWS V14.01,2013-08-27 07:21:00,
2013-08-27 00:26:00,59.4,23.6,29.94,SW,233,5.4,5.4,25,0.00,,,0.00,VWS V14.01,2013-08-27 07:26:00,
2013-08-27 00:32:00,59.4,23.6,29.94,WSW,252,2.2,5.8,25,0.00,,,0.00,VWS V14.01,2013-08-27 07:32:00,
2013-08-27 00:37:00,59.2,23.4,29.94,WSW,249,0.0,0.0,25,0.00,,,0.00,VWS V14.01,2013-08-27 07:37:00,
2013-08-27 00:42:00,58.8,23.1,29.94,WSW,251,0.0,0.0,25,0.00,,,0.00,VWS V14.01,2013-08-27 07:42:00,
2013-08-27 00:47:00,58.8,23.1,29.94,WSW,247,2.7,7.2,25,0.00,,,0.00,VWS V14.01,2013-08-27 07:47:00,
2013-08-27 00:52:00,58.8,23.1,29.94,WSW,249,0.0,0.0,25,0.00,,,0.00,VWS V14.01,2013-08-27 07:52:00,
2013-08-27 00:58:00,58.6,22.9,29.94,SW,227,0.0,4.0,25,0.00,,,0.00,VWS V14.01,2013-08-27 07:58:00,
2013-08-27 01:03:00,58.6,22.9,29.94,SW,223,5.8,6.7,25,0.00,,,0.00,VWS V14.01,2013-08-27 08:03:00,
2013-08-27 01:08:00,58.6,22.9,29.94,SW,231,7.6,7.6,25,0.00,,,0.00,VWS V14.01,2013-08-27 08:08:00,
2013-08-27 01:13:00,58.6,22.9,29.94,SW,227,8.1,8.1,25,0.00,,,0.00,VWS V14.01,2013-08-27 08:13:00,
2013-08-27 01:18:00,58.6,22.9,29.94,SW,235,5.4,5.8,25,0.00,,,0.00,VWS V14.01,2013-08-27 08:18:00,
2013-08-27 01:23:00,58.5,22.8,29.94,WSW,238,4.9,8.1,25,0.00,,,0.00,VWS V14.01,2013-08-27 08:23:00,
2013-08-27 01:29:00,58.5,22.8,29.94,West,260,0.0,8.1,25,0.00,,,0.00,VWS V14.01,2013-08-27 08:29:00,
2013-08-27 01:34:00,58.5,22.8,29.94,WSW,237,2.7,2.7,25,0.00,,,0.00,VWS V14.01,2013-08-27 08:34:00,
2013-08-27 01:40:00,58.3,22.6,29.94,SW,214,2.7,5.8,25,0.00,,,0.00,VWS V14.01,2013-08-27 08:40:00,
2013-08-27 01:45:00,58.3,22.6,29.94,WSW,239,0.0,0.0,25,0.00,,,0.00,VWS V14.01,2013-08-27 08:45:00,
2013-08-27 01:51:00,58.5,22.8,29.94,SW,226,2.2,2.2,25,0.00,,,0.00,VWS V14.01,2013-08-27 08:51:00,
2013-08-27 01:56:00,58.5,22.8,29.94,WSW,251,0.0,0.0,25,0.00,,,0.00,VWS V14.01,2013-08-27 08:56:00,
2013-08-27 02:01:00,58.3,22.6,29.94,WSW,238,0.0,0.0,25,0.00,,,0.00,VWS V14.01,2013-08-27 09:01:00,
2013-08-27 02:07:00,58.8,23.1,29.94,WSW,244,3.1,3.1,25,0.00,,,0.00,VWS V14.01,2013-08-27 09:07:00,
2013-08-27 02:12:00,59.0,23.2,29.94,SW,232,0.0,0.0,25,0.00,,,0.00,VWS V14.01,2013-08-27 09:12:00,
2013-08-27 02:18:00,59.2,23.4,29.94,SW,228,0.0,3.6,25,0.00,,,0.00,VWS V14.01,2013-08-27 09:18:00,
2013-08-27 02:23:00,59.2,23.4,29.94,WSW,251,0.0,4.5,25,0.00,,,0.00,VWS V14.01,2013-08-27 09:23:00,
2013-08-27 02:29:00,59.2,23.4,29.94,WSW,248,4.9,4.9,25,0.00,,,0.00,VWS V14.01,2013-08-27 09:29:00,
2013-08-27 02:34:00,59.2,23.4,29.94,SW,216,2.7,5.8,25,0.00,,,0.00,VWS V14.01,2013-08-27 09:34:00,
2013-08-27 02:40:00,59.4,23.6,29.91,WSW,243,4.0,4.0,25,0.00,,,0.00,VWS V14.01,2013-08-27 09:40:00,
2013-08-27 02:45:00,59.4,23.6,29.91,West,259,0.0,4.0,25,0.00,,,0.00,VWS V14.01,2013-08-27 09:45:00,
2013-08-27 02:50:00,59.4,23.6,29.91,WSW,239,0.0,4.0,25,0.00,,,0.00,VWS V14.01,2013-08-27 09:50:00,
2013-08-27 02:55:00,59.2,23.4,29.94,WSW,255,0.0,0.0,25,0.00,,,0.00,VWS V14.01,2013-08-27 09:55:00,
2013-08-27 03:01:00,59.4,23.6,29.94,SSW,208,4.9,4.9,25,0.00,,,0.00,VWS V14.01,2013-08-27 10:01:00,
2013-08-27 03:06:00,59.5,23.7,29.94,SW,223,8.1,8.3,25,0.00,,,0.00,VWS V14.01,2013-08-27 10:06:00,
2013-08-27 03:11:00,59.4,23.6,29.91,SW,224,7.6,7.6,25,0.00,,,0.00,VWS V14.01,2013-08-27 10:11:00,
2013-08-27 03:17:00,58.8,23.1,29.91,SW,227,5.4,5.4,25,0.00,,,0.00,VWS V14.01,2013-08-27 10:17:00,
2013-08-27 03:23:00,58.5,22.8,29.94,SW,229,3.6,5.4,25,0.00,,,0.00,VWS V14.01,2013-08-27 10:23:00,
2013-08-27 03:28:00,58.3,22.6,29.94,WSW,246,4.0,7.6,25,0.00,,,0.00,VWS V14.01,2013-08-27 10:28:00,
2013-08-27 03:34:00,58.1,22.5,29.94,West,271,2.2,2.7,25,0.00,,,0.00,VWS V14.01,2013-08-27 10:34:00,
2013-08-27 03:39:00,58.1,22.5,29.91,SW,217,4.9,4.9,25,0.00,,,0.00,VWS V14.01,2013-08-27 10:39:00,
2013-08-27 03:44:00,58.1,22.5,29.91,SW,225,3.1,4.0,25,0.00,,,0.00,VWS V14.01,2013-08-27 10:44:00,
2013-08-27 03:49:00,58.1,22.5,29.91,SW,225,4.0,4.0,25,0.00,,,0.00,VWS V14.01,2013-08-27 10:49:00,
2013-08-27 03:54:00,58.1,22.5,29.94,WNW,288,0.0,2.2,25,0.00,,,0.00,VWS V14.01,2013-08-27 10:54:00,
2013-08-27 04:00:00,58.1,22.5,29.94,WSW,247,0.0,0.0,25,0.00,,,0.00,VWS V14.01,2013-08-27 11:00:00,
2013-08-27 04:05:00,57.9,22.3,29.94,WSW,248,0.0,0.0,25,0.00,,,0.00,VWS V14.01,2013-08-27 11:05:00,
2013-08-27 04:10:00,57.6,22.0,29.91,WSW,248,0.0,0.0,25,0.00,,,0.00,VWS V14.01,2013-08-27 11:10:00,
2013-08-27 04:15:00,57.2,21.7,29.91,WSW,249,0.0,0.0,25,0.00,,,0.00,VWS V14.01,2013-08-27 11:15:00,
2013-08-27 04:21:00,56.8,22.3,29.91,West,261,0.0,0.0,26,0.00,,,0.00,VWS V14.01,2013-08-27 11:21:00,
2013-08-27 04:26:00,56.3,21.9,29.94,West,270,0.0,0.0,26,0.00,,,0.00,VWS V14.01,2013-08-27 11:26:00,
2013-08-27 04:32:00,56.1,21.7,29.94,West,276,0.0,0.0,26,0.00,,,0.00,VWS V14.01,2013-08-27 11:32:00,
2013-08-27 04:37:00,55.9,21.6,29.94,West,278,0.0,0.0,26,0.00,,,0.00,VWS V14.01,2013-08-27 11:37:00,
2013-08-27 04:42:00,55.9,21.6,29.94,West,278,0.0,0.0,26,0.00,,,0.00,VWS V14.01,2013-08-27 11:42:00,
2013-08-27 04:47:00,55.9,21.6,29.94,West,278,0.0,0.0,26,0.00,,,0.00,VWS V14.01,2013-08-27 11:47:00,
2013-08-27 04:52:00,56.1,21.7,29.94,West,278,0.0,0.0,26,0.00,,,0.00,VWS V14.01,2013-08-27 11:52:00,
2013-08-27 04:58:00,56.3,21.9,29.94,West,271,0.0,0.0,26,0.00,,,0.00,VWS V14.01,2013-08-27 11:58:00,
2013-08-27 05:03:00,56.3,21.9,29.94,West,271,0.0,0.0,26,0.00,,,0.00,VWS V14.01,2013-08-27 12:03:00,
2013-08-27 05:08:00,56.3,21.9,29.94,West,271,0.0,0.0,26,0.00,,,0.00,VWS V14.01,2013-08-27 12:08:00,
2013-08-27 05:13:00,56.1,21.7,29.94,West,271,0.0,0.0,26,0.00,,,0.00,VWS V14.01,2013-08-27 12:13:00,
2013-08-27 05:18:00,55.9,21.6,29.94,West,271,0.0,0.0,26,0.00,,,0.00,VWS V14.01,2013-08-27 12:18:00,
2013-08-27 05:24:00,55.9,21.6,29.94,West,271,0.0,0.0,26,0.00,,,0.00,VWS V14.01,2013-08-27 12:24:00,
2013-08-27 05:29:00,55.9,21.6,29.94,West,271,0.0,0.0,26,0.00,,,0.00,VWS V14.01,2013-08-27 12:29:00,
2013-08-27 05:34:00,55.9,21.6,29.94,West,271,0.0,0.0,26,0.00,,,0.00,VWS V14.01,2013-08-27 12:34:00,
2013-08-27 05:39:00,55.9,21.6,29.94,West,271,0.0,0.0,26,0.00,,,0.00,VWS V14.01,2013-08-27 12:39:00,
2013-08-27 05:45:00,55.9,21.6,29.94,West,271,0.0,0.0,26,0.00,,,0.00,VWS V14.01,2013-08-27 12:45:00,
2013-08-27 05:50:00,56.1,21.7,29.94,West,271,0.0,0.0,26,0.00,,,0.00,VWS V14.01,2013-08-27 12:50:00,
2013-08-27 05:55:00,56.1,21.7,29.94,West,271,0.0,0.0,26,0.00,,,0.00,VWS V14.01,2013-08-27 12:55:00,
2013-08-27 06:00:00,56.3,21.9,29.94,West,271,0.0,0.0,26,0.00,,,0.00,VWS V14.01,2013-08-27 13:00:00,
2013-08-27 06:06:00,56.3,21.9,29.94,West,271,0.0,0.0,26,0.00,,,0.00,VWS V14.01,2013-08-27 13:06:00,
2013-08-27 06:12:00,56.3,21.9,29.94,West,271,0.0,0.0,26,0.00,,,0.00,VWS V14.01,2013-08-27 13:12:00,
2013-08-27 06:17:00,56.3,21.9,29.94,West,271,0.0,0.0,26,0.00,,,0.00,VWS V14.01,2013-08-27 13:17:00,
2013-08-27 06:22:00,56.5,22.0,29.94,West,271,0.0,0.0,26,0.00,,,0.00,VWS V14.01,2013-08-27 13:22:00,
2013-08-27 06:27:00,56.5,22.0,29.94,West,271,0.0,0.0,26,0.00,,,0.00,VWS V14.01,2013-08-27 13:27:00,
2013-08-27 06:33:00,56.5,22.0,29.94,WSW,240,2.7,4.0,26,0.00,,,0.00,VWS V14.01,2013-08-27 13:33:00,
2013-08-27 06:38:00,56.5,22.0,29.94,SW,226,3.6,5.8,26,0.00,,,0.00,VWS V14.01,2013-08-27 13:38:00,
2013-08-27 06:43:00,56.3,21.9,29.94,SW,225,0.0,0.0,26,0.00,,,0.00,VWS V14.01,2013-08-27 13:43:00,
2013-08-27 06:48:00,56.3,21.9,29.94,SW,225,0.0,0.0,26,0.00,,,0.00,VWS V14.01,2013-08-27 13:48:00,
2013-08-27 06:53:00,56.3,21.9,29.94,SW,225,0.0,0.0,26,0.00,,,0.00,VWS V14.01,2013-08-27 13:53:00,
2013-08-27 06:59:00,56.3,21.9,29.94,SW,225,0.0,0.0,26,0.00,,,0.00,VWS V14.01,2013-08-27 13:59:00,
2013-08-27 07:04:00,56.3,21.9,29.94,WSW,237,5.4,5.8,26,0.00,,,0.00,VWS V14.01,2013-08-27 14:04:00,
2013-08-27 07:09:00,56.1,21.7,29.94,SW,223,0.0,2.2,26,0.00,,,0.00,VWS V14.01,2013-08-27 14:09:00,
2013-08-27 07:15:00,55.9,21.6,29.94,SW,223,0.0,0.0,26,0.00,,,0.00,VWS V14.01,2013-08-27 14:15:00,
2013-08-27 07:20:00,56.1,21.7,29.94,ESE,114,0.0,0.0,26,0.00,,,0.00,VWS V14.01,2013-08-27 14:20:00,
2013-08-27 07:25:00,56.5,22.0,29.94,SE,129,0.0,0.0,26,0.00,,,0.00,VWS V14.01,2013-08-27 14:25:00,
2013-08-27 07:30:00,56.7,22.2,29.94,SE,145,0.0,0.0,26,0.00,,,0.00,VWS V14.01,2013-08-27 14:30:00,
2013-08-27 07:35:00,56.7,22.2,29.94,SW,216,0.0,0.0,26,0.00,,,0.00,VWS V14.01,2013-08-27 14:35:00,
2013-08-27 07:41:00,56.8,22.3,29.94,SSW,208,3.6,3.6,26,0.00,,,0.00,VWS V14.01,2013-08-27 14:41:00,
2013-08-27 07:47:00,57.2,21.7,29.94,SW,222,0.0,0.0,25,0.00,,,0.00,VWS V14.01,2013-08-27 14:47:00,
2013-08-27 07:52:00,57.2,21.7,29.94,SW,223,4.0,4.0,25,0.00,,,0.00,VWS V14.01,2013-08-27 14:52:00,
2013-08-27 07:57:00,57.6,22.0,29.94,SW,220,4.9,5.4,25,0.00,,,0.00,VWS V14.01,2013-08-27 14:57:00,
2013-08-27 08:03:00,57.7,22.2,29.94,SW,236,0.0,3.6,25,0.00,,,0.00,VWS V14.01,2013-08-27 15:03:00,
2013-08-27 08:09:00,57.9,22.3,29.94,SW,216,4.5,4.5,25,0.00,,,0.00,VWS V14.01,2013-08-27 15:09:00,
2013-08-27 08:15:00,57.9,22.3,29.94,SSW,208,0.0,5.8,25,0.00,,,0.00,VWS V14.01,2013-08-27 15:15:00,
2013-08-27 08:20:00,58.1,22.5,29.94,SW,218,0.0,0.0,25,0.00,,,0.00,VWS V14.01,2013-08-27 15:20:00,
2013-08-27 08:25:00,58.3,22.6,29.94,SSW,212,3.6,5.8,25,0.00,,,0.00,VWS V14.01,2013-08-27 15:25:00,
2013-08-27 08:31:00,58.6,22.9,29.94,SSW,210,2.7,7.6,25,0.00,,,0.00,VWS V14.01,2013-08-27 15:31:00,
2013-08-27 08:37:00,58.5,22.8,29.94,SW,224,6.3,6.3,25,0.00,,,0.00,VWS V14.01,2013-08-27 15:37:00,
2013-08-27 08:42:00,58.8,23.1,29.94,SW,226,6.3,8.7,25,0.00,,,0.00,VWS V14.01,2013-08-27 15:42:00,
2013-08-27 08:48:00,59.2,23.4,29.94,SW,220,5.8,8.1,25,0.00,,,0.00,VWS V14.01,2013-08-27 15:48:00,
2013-08-27 08:53:00,59.2,23.4,29.94,SW,221,8.1,8.1,25,0.00,,,0.00,VWS V14.01,2013-08-27 15:53:00,
2013-08-27 08:58:00,59.5,23.7,29.94,SW,219,5.8,8.1,25,0.00,,,0.00,VWS V14.01,2013-08-27 15:58:00,
2013-08-27 09:03:00,59.7,23.9,29.94,SW,218,5.8,6.3,25,0.00,,,0.00,VWS V14.01,2013-08-27 16:03:00,
2013-08-27 09:08:00,59.9,24.0,29.94,SW,216,5.4,7.6,25,0.00,,,0.00,VWS V14.01,2013-08-27 16:08:00,
2013-08-27 09:14:00,60.4,24.5,29.94,SW,220,7.6,7.6,25,0.00,,,0.00,VWS V14.01,2013-08-27 16:14:00,
2013-08-27 09:20:00,60.4,24.5,29.94,SW,229,6.3,7.6,25,0.00,,,0.00,VWS V14.01,2013-08-27 16:20:00,
2013-08-27 09:25:00,60.8,24.8,29.94,SW,226,5.8,6.3,25,0.00,,,0.00,VWS V14.01,2013-08-27 16:25:00,
2013-08-27 09:30:00,61.0,24.9,29.94,SW,218,5.8,6.3,25,0.00,,,0.00,VWS V14.01,2013-08-27 16:30:00,
2013-08-27 09:36:00,61.2,25.1,29.94,SW,221,5.8,5.8,25,0.00,,,0.00,VWS V14.01,2013-08-27 16:36:00,
2013-08-27 09:41:00,61.3,25.2,29.94,SSW,213,5.4,5.8,25,0.00,,,0.00,VWS V14.01,2013-08-27 16:41:00,
2013-08-27 09:47:00,61.9,25.7,29.94,SSW,211,5.4,5.8,25,0.00,,,0.00,VWS V14.01,2013-08-27 16:47:00,
2013-08-27 09:52:00,61.9,25.7,29.94,SSW,212,5.4,7.2,25,0.00,,,0.00,VWS V14.01,2013-08-27 16:52:00,
2013-08-27 09:57:00,62.1,25.9,29.94,SW,215,5.8,5.8,25,0.00,,,0.00,VWS V14.01,2013-08-27 16:57:00,
2013-08-27 10:02:00,62.6,25.3,29.94,SW,226,6.3,6.3,24,0.00,,,0.00,VWS V14.01,2013-08-27 17:02:00,
2013-08-27 10:07:00,63.0,25.6,29.94,SW,224,4.0,4.0,24,0.00,,,0.00,VWS V14.01,2013-08-27 17:07:00,
2013-08-27 10:13:00,63.0,25.6,29.94,SW,219,4.9,5.4,24,0.00,,,0.00,VWS V14.01,2013-08-27 17:13:00,
2013-08-27 10:19:00,63.1,25.8,29.94,SW,224,5.4,6.3,24,0.00,,,0.00,VWS V14.01,2013-08-27 17:19:00,
2013-08-27 10:25:00,63.3,25.9,29.94,SW,219,4.9,4.9,24,0.00,,,0.00,VWS V14.01,2013-08-27 17:25:00,
2013-08-27 10:30:00,63.7,26.2,29.94,SW,219,4.0,4.0,24,0.00,,,0.00,VWS V14.01,2013-08-27 17:30:00,
2013-08-27 10:36:00,63.9,26.4,29.94,SW,219,0.0,0.0,24,0.00,,,0.00,VWS V14.01,2013-08-27 17:36:00,
2013-08-27 10:41:00,63.9,26.4,29.94,SW,219,3.6,4.0,24,0.00,,,0.00,VWS V14.01,2013-08-27 17:41:00,
2013-08-27 10:46:00,64.0,26.5,29.94,SW,218,0.0,0.0,24,0.00,,,0.00,VWS V14.01,2013-08-27 17:46:00,
2013-08-27 10:52:00,64.2,26.7,29.91,SW,217,0.0,0.0,24,0.00,,,0.00,VWS V14.01,2013-08-27 17:52:00,
2013-08-27 10:58:00,64.2,26.7,29.91,SW,217,0.0,0.0,24,0.00,,,0.00,VWS V14.01,2013-08-27 17:58:00,
2013-08-27 11:03:00,64.4,26.9,29.91,SW,217,0.0,0.0,24,0.00,,,0.00,VWS V14.01,2013-08-27 18:03:00,
2013-08-27 11:08:00,64.6,27.0,29.91,SW,217,0.0,0.0,24,0.00,,,0.00,VWS V14.01,2013-08-27 18:08:00,
2013-08-27 11:13:00,65.1,27.5,29.91,SW,217,0.0,0.0,24,0.00,,,0.00,VWS V14.01,2013-08-27 18:13:00,
2013-08-27 11:19:00,65.7,27.9,29.91,SW,217,0.0,0.0,24,0.00,,,0.00,VWS V14.01,2013-08-27 18:19:00,
2013-08-27 11:24:00,65.8,28.1,29.91,SW,217,0.0,0.0,24,0.00,,,0.00,VWS V14.01,2013-08-27 18:24:00,
2013-08-27 11:30:00,66.0,28.2,29.91,SW,217,0.0,0.0,24,0.00,,,0.00,VWS V14.01,2013-08-27 18:30:00,
2013-08-27 11:36:00,66.2,27.3,29.91,SW,217,0.0,0.0,23,0.00,,,0.00,VWS V14.01,2013-08-27 18:36:00,
2013-08-27 11:41:00,66.2,27.3,29.91,SW,217,0.0,0.0,23,0.00,,,0.00,VWS V14.01,2013-08-27 18:41:00,
2013-08-27 11:46:00,66.6,27.6,29.91,SW,217,0.0,0.0,23,0.00,,,0.00,VWS V14.01,2013-08-27 18:46:00,
2013-08-27 11:51:00,66.7,27.8,29.91,SW,217,0.0,0.0,23,0.00,,,0.00,VWS V14.01,2013-08-27 18:51:00,
2013-08-27 11:57:00,66.6,27.6,29.91,SW,217,0.0,0.0,23,0.00,,,0.00,VWS V14.01,2013-08-27 18:57:00,
2013-08-27 12:02:00,67.6,28.5,29.91,SW,230,0.0,0.0,23,0.00,,,0.00,VWS V14.01,2013-08-27 19:02:00,
2013-08-27 12:08:00,67.6,28.5,29.91,SSW,212,6.3,6.3,23,0.00,,,0.00,VWS V14.01,2013-08-27 19:08:00,
2013-08-27 12:13:00,68.5,29.3,29.91,SW,222,4.5,5.4,23,0.00,,,0.00,VWS V14.01,2013-08-27 19:13:00,
2013-08-27 12:18:00,69.1,29.8,29.91,SW,228,4.0,5.8,23,0.00,,,0.00,VWS V14.01,2013-08-27 19:18:00,
2013-08-27 12:23:00,69.8,29.3,29.88,SSW,211,5.4,5.8,22,0.00,,,0.00,VWS V14.01,2013-08-27 19:23:00,
2013-08-27 12:28:00,69.8,29.3,29.88,SW,230,5.4,6.3,22,0.00,,,0.00,VWS V14.01,2013-08-27 19:28:00,
2013-08-27 12:33:00,69.6,30.2,29.88,SW,222,5.4,6.3,23,0.00,,,0.00,VWS V14.01,2013-08-27 19:33:00,
2013-08-27 12:38:00,69.8,29.3,29.88,SW,227,5.4,5.4,22,0.00,,,0.00,VWS V14.01,2013-08-27 19:38:00,
2013-08-27 12:43:00,69.8,29.3,29.88,SW,233,5.4,5.4,22,0.00,,,0.00,VWS V14.01,2013-08-27 19:43:00,
2013-08-27 12:49:00,70.0,29.4,29.88,SW,219,3.6,6.3,22,0.00,,,0.00,VWS V14.01,2013-08-27 19:49:00,
2013-08-27 12:54:00,70.2,29.6,29.88,SW,214,3.6,5.4,22,0.00,,,0.00,VWS V14.01,2013-08-27 19:54:00,
2013-08-27 13:00:00,70.3,29.7,29.88,SW,219,4.0,4.0,22,0.00,,,0.00,VWS V14.01,2013-08-27 20:00:00,
2013-08-27 13:05:00,70.3,29.7,29.88,SW,225,5.8,5.8,22,0.00,,,0.00,VWS V14.01,2013-08-27 20:05:00,
2013-08-27 13:11:00,70.5,29.9,29.88,SW,220,4.9,5.4,22,0.00,,,0.00,VWS V14.01,2013-08-27 20:11:00,
2013-08-27 13:17:00,70.5,29.9,29.88,SW,223,5.4,5.8,22,0.00,,,0.00,VWS V14.01,2013-08-27 20:17:00,
2013-08-27 13:22:00,71.2,30.5,29.88,SW,222,5.4,5.8,22,0.00,,,0.00,VWS V14.01,2013-08-27 20:22:00,
2013-08-27 13:28:00,70.9,30.2,29.88,SW,228,5.4,5.4,22,0.00,,,0.00,VWS V14.01,2013-08-27 20:28:00,
2013-08-27 13:33:00,71.1,30.3,29.88,SW,229,4.9,5.4,22,0.00,,,0.00,VWS V14.01,2013-08-27 20:33:00,
2013-08-27 13:38:00,71.2,30.5,29.88,SW,227,6.7,6.7,22,0.00,,,0.00,VWS V14.01,2013-08-27 20:38:00,
2013-08-27 13:43:00,71.1,30.3,29.88,WSW,240,6.7,7.6,22,0.00,,,0.00,VWS V14.01,2013-08-27 20:43:00,
2013-08-27 13:49:00,71.2,30.5,29.88,WSW,237,6.3,6.3,22,0.00,,,0.00,VWS V14.01,2013-08-27 20:49:00,
2013-08-27 13:54:00,71.2,30.5,29.88,SW,222,6.3,6.3,22,0.00,,,0.00,VWS V14.01,2013-08-27 20:54:00,
2013-08-27 13:59:00,71.1,30.3,29.88,SW,219,7.6,7.6,22,0.00,,,0.00,VWS V14.01,2013-08-27 20:59:00,
2013-08-27 14:04:00,71.1,30.3,29.88,SW,222,7.6,8.3,22,0.00,,,0.00,VWS V14.01,2013-08-27 21:04:00,
2013-08-27 14:09:00,70.9,30.2,29.85,SW,219,8.3,8.3,22,0.00,,,0.00,VWS V14.01,2013-08-27 21:09:00,
2013-08-27 14:14:00,71.1,30.3,29.85,SW,224,7.6,7.6,22,0.00,,,0.00,VWS V14.01,2013-08-27 21:14:00,
2013-08-27 14:20:00,71.2,30.5,29.85,SW,229,6.3,7.6,22,0.00,,,0.00,VWS V14.01,2013-08-27 21:20:00,
2013-08-27 14:25:00,71.8,30.9,29.85,SW,214,5.4,6.3,22,0.00,,,0.00,VWS V14.01,2013-08-27 21:25:00,
2013-08-27 14:30:00,71.4,30.6,29.85,SSW,207,4.0,5.8,22,0.00,,,0.00,VWS V14.01,2013-08-27 21:30:00,
2013-08-27 14:36:00,70.9,31.3,29.85,SW,224,4.9,5.4,23,0.00,,,0.00,VWS V14.01,2013-08-27 21:36:00,
2013-08-27 14:41:00,70.2,30.7,29.85,SW,214,3.6,4.0,23,0.00,,,0.00,VWS V14.01,2013-08-27 21:41:00,
2013-08-27 14:46:00,70.0,30.5,29.85,SW,223,0.0,0.0,23,0.00,,,0.00,VWS V14.01,2013-08-27 21:46:00,
2013-08-27 14:52:00,70.2,30.7,29.85,SW,223,0.0,0.0,23,0.00,,,0.00,VWS V14.01,2013-08-27 21:52:00,
2013-08-27 14:57:00,70.7,31.1,29.85,SW,223,0.0,0.0,23,0.00,,,0.00,VWS V14.01,2013-08-27 21:57:00,
2013-08-27 15:02:00,70.2,30.7,29.85,SW,223,0.0,0.0,23,0.00,,,0.00,VWS V14.01,2013-08-27 22:02:00,
2013-08-27 15:07:00,70.3,30.8,29.85,SW,223,0.0,0.0,23,0.00,,,0.00,VWS V14.01,2013-08-27 22:07:00,
2013-08-27 15:13:00,71.1,30.3,29.85,SW,231,4.0,4.0,22,0.00,,,0.00,VWS V14.01,2013-08-27 22:13:00,
2013-08-27 15:18:00,71.4,30.6,29.85,SW,229,4.0,4.9,22,0.00,,,0.00,VWS V14.01,2013-08-27 22:18:00,
2013-08-27 15:23:00,71.6,30.8,29.85,SW,227,4.0,4.0,22,0.00,,,0.00,VWS V14.01,2013-08-27 22:23:00,
2013-08-27 15:28:00,71.8,30.9,29.85,SW,227,3.1,4.5,22,0.00,,,0.00,VWS V14.01,2013-08-27 22:28:00,
2013-08-27 15:34:00,71.6,30.8,29.85,SSW,206,4.9,4.9,22,0.00,,,0.00,VWS V14.01,2013-08-27 22:34:00,
2013-08-27 15:39:00,70.5,31.0,29.85,SSW,200,4.0,4.9,23,0.00,,,0.00,VWS V14.01,2013-08-27 22:39:00,
2013-08-27 15:44:00,70.7,31.1,29.85,SSW,200,0.0,3.1,23,0.00,,,0.00,VWS V14.01,2013-08-27 22:44:00,
2013-08-27 15:49:00,71.2,30.5,29.85,SW,221,0.0,0.0,22,0.00,,,0.00,VWS V14.01,2013-08-27 22:49:00,
2013-08-27 15:55:00,72.0,31.1,29.82,SW,221,0.0,0.0,22,0.00,,,0.00,VWS V14.01,2013-08-27 22:55:00,
2013-08-27 16:00:00,72.1,31.2,29.82,SW,222,0.0,0.0,22,0.00,,,0.00,VWS V14.01,2013-08-27 23:00:00,
2013-08-27 16:06:00,71.8,30.9,29.82,SW,222,0.0,0.0,22,0.00,,,0.00,VWS V14.01,2013-08-27 23:06:00,
2013-08-27 16:11:00,71.8,30.9,29.82,SW,222,2.2,2.2,22,0.00,,,0.00,VWS V14.01,2013-08-27 23:11:00,
2013-08-27 16:17:00,72.1,31.2,29.82,SW,225,5.4,6.3,22,0.00,,,0.00,VWS V14.01,2013-08-27 23:17:00,
2013-08-27 16:23:00,72.9,31.8,29.82,SW,224,6.3,7.6,22,0.00,,,0.00,VWS V14.01,2013-08-27 23:23:00,
2013-08-27 16:29:00,73.0,32.0,29.82,SSW,212,5.8,6.3,22,0.00,,,0.00,VWS V14.01,2013-08-27 23:29:00,
2013-08-27 16:34:00,72.3,31.4,29.82,SW,227,5.4,5.8,22,0.00,,,0.00,VWS V14.01,2013-08-27 23:34:00,
2013-08-27 16:40:00,72.5,31.5,29.82,WSW,239,5.4,6.3,22,0.00,,,0.00,VWS V14.01,2013-08-27 23:40:00,
2013-08-27 16:45:00,72.5,31.5,29.82,WSW,241,4.0,5.4,22,0.00,,,0.00,VWS V14.01,2013-08-27 23:45:00,
2013-08-27 16:51:00,72.7,31.7,29.82,SW,224,4.0,4.9,22,0.00,,,0.00,VWS V14.01,2013-08-27 23:51:00,
2013-08-27 16:56:00,72.9,31.8,29.82,SW,221,4.0,4.0,22,0.00,,,0.00,VWS V14.01,2013-08-27 23:56:00,
2013-08-27 17:01:00,72.7,31.7,29.82,SW,228,2.7,3.6,22,0.00,,,0.00,VWS V14.01,2013-08-28 00:01:00,
2013-08-27 17:06:00,72.7,31.7,29.82,SW,226,0.0,0.0,22,0.00,,,0.00,VWS V14.01,2013-08-28 00:06:00,
2013-08-27 17:12:00,73.4,31.1,29.82,SW,218,0.0,0.0,21,0.00,,,0.00,VWS V14.01,2013-08-28 00:12:00,
2013-08-27 17:17:00,73.8,31.4,29.82,SSW,203,0.0,0.0,21,0.00,,,0.00,VWS V14.01,2013-08-28 00:17:00,
2013-08-27 17:22:00,73.8,31.4,29.82,SW,218,0.0,0.0,21,0.00,,,0.00,VWS V14.01,2013-08-28 00:22:00,
2013-08-27 17:27:00,73.4,31.1,29.82,SW,230,0.0,0.0,21,0.00,,,0.00,VWS V14.01,2013-08-28 00:27:00,
2013-08-27 17:33:00,73.4,31.1,29.82,SW,230,0.0,0.0,21,0.00,,,0.00,VWS V14.01,2013-08-28 00:33:00,
2013-08-27 17:38:00,73.0,32.0,29.82,SW,230,0.0,0.0,22,0.00,,,0.00,VWS V14.01,2013-08-28 00:38:00,
2013-08-27 17:43:00,72.7,31.7,29.82,SW,230,0.0,0.0,22,0.00,,,0.00,VWS V14.01,2013-08-28 00:43:00,
2013-08-27 17:48:00,72.1,31.2,29.82,SW,230,0.0,0.0,22,0.00,,,0.00,VWS V14.01,2013-08-28 00:48:00,
2013-08-27 17:53:00,71.8,30.9,29.79,SW,230,0.0,0.0,22,0.00,,,0.00,VWS V14.01,2013-08-28 00:53:00,
2013-08-27 17:58:00,71.4,30.6,29.79,SW,230,0.0,0.0,22,0.00,,,0.00,VWS V14.01,2013-08-28 00:58:00,
2013-08-27 18:04:00,70.9,30.2,29.79,SW,230,0.0,0.0,22,0.00,,,0.00,VWS V14.01,2013-08-28 01:04:00,
2013-08-27 18:09:00,70.5,29.9,29.79,SW,230,0.0,0.0,22,0.00,,,0.00,VWS V14.01,2013-08-28 01:09:00,
2013-08-27 18:15:00,70.3,29.7,29.79,SW,230,0.0,0.0,22,0.00,,,0.00,VWS V14.01,2013-08-28 01:15:00,
2013-08-27 18:20:00,70.2,29.6,29.79,SW,230,0.0,0.0,22,0.00,,,0.00,VWS V14.01,2013-08-28 01:20:00,
2013-08-27 18:25:00,70.0,29.4,29.79,SW,221,0.0,0.0,22,0.00,,,0.00,VWS V14.01,2013-08-28 01:25:00,
2013-08-27 18:30:00,69.6,30.2,29.79,SW,231,0.0,0.0,23,0.00,,,0.00,VWS V14.01,2013-08-28 01:30:00,
2013-08-27 18:35:00,69.8,30.4,29.79,WSW,239,4.5,4.9,23,0.00,,,0.00,VWS V14.01,2013-08-28 01:35:00,
2013-08-27 18:40:00,70.2,30.7,29.82,SW,224,10.5,10.5,23,0.00,,,0.00,VWS V14.01,2013-08-28 01:40:00,
2013-08-27 18:46:00,69.3,29.9,29.82,SW,226,6.3,8.7,23,0.00,,,0.00,VWS V14.01,2013-08-28 01:46:00,
2013-08-27 18:51:00,68.5,29.3,29.82,WSW,240,0.0,0.0,23,0.00,,,0.00,VWS V14.01,2013-08-28 01:51:00,
2013-08-27 18:56:00,68.7,29.5,29.82,WSW,241,6.3,6.3,23,0.00,,,0.00,VWS V14.01,2013-08-28 01:56:00,
2013-08-27 19:01:00,68.2,29.0,29.82,SW,225,4.0,8.1,23,0.00,,,0.00,VWS V14.01,2013-08-28 02:01:00,
2013-08-27 19:06:00,67.8,28.7,29.82,SW,215,5.8,6.3,23,0.00,,,0.00,VWS V14.01,2013-08-28 02:06:00,
2013-08-27 19:12:00,67.8,28.7,29.82,WSW,240,8.7,10.5,23,0.00,,,0.00,VWS V14.01,2013-08-28 02:12:00,
2013-08-27 19:17:00,67.5,28.4,29.82,SW,226,2.7,5.4,23,0.00,,,0.00,VWS V14.01,2013-08-28 02:17:00,
2013-08-27 19:22:00,67.3,28.2,29.82,SW,223,4.0,8.1,23,0.00,,,0.00,VWS V14.01,2013-08-28 02:22:00,
2013-08-27 19:28:00,67.1,29.1,29.82,SW,233,8.1,8.7,24,0.00,,,0.00,VWS V14.01,2013-08-28 02:28:00,
2013-08-27 19:33:00,67.1,29.1,29.82,SW,224,6.3,6.3,24,0.00,,,0.00,VWS V14.01,2013-08-28 02:33:00,
2013-08-27 19:38:00,66.7,28.8,29.82,SW,228,0.0,5.8,24,0.00,,,0.00,VWS V14.01,2013-08-28 02:38:00,
2013-08-27 19:44:00,66.4,28.5,29.82,SW,225,5.4,5.4,24,0.00,,,0.00,VWS V14.01,2013-08-28 02:44:00,
2013-08-27 19:49:00,66.2,28.4,29.82,SW,226,8.3,8.3,24,0.00,,,0.00,VWS V14.01,2013-08-28 02:49:00,
2013-08-27 19:54:00,66.0,28.2,29.82,SSW,213,7.6,7.6,24,0.00,,,0.00,VWS V14.01,2013-08-28 02:54:00,
2013-08-27 19:59:00,65.7,27.9,29.82,SW,234,3.6,5.4,24,0.00,,,0.00,VWS V14.01,2013-08-28 02:59:00,
2013-08-27 20:04:00,65.7,27.9,29.82,SW,219,5.4,5.8,24,0.00,,,0.00,VWS V14.01,2013-08-28 03:04:00,
2013-08-27 20:10:00,65.5,27.8,29.82,WSW,237,0.0,0.0,24,0.00,,,0.00,VWS V14.01,2013-08-28 03:10:00,
2013-08-27 20:15:00,65.1,27.5,29.82,SW,234,4.0,6.3,24,0.00,,,0.00,VWS V14.01,2013-08-28 03:15:00,
2013-08-27 20:21:00,64.2,26.7,29.82,SW,234,4.0,4.0,24,0.00,,,0.00,VWS V14.01,2013-08-28 03:21:00,
2013-08-27 20:27:00,64.2,26.7,29.82,SW,231,8.3,8.3,24,0.00,,,0.00,VWS V14.01,2013-08-28 03:27:00,
2013-08-27 20:32:00,64.2,26.7,29.82,SW,223,3.1,7.6,24,0.00,,,0.00,VWS V14.01,2013-08-28 03:32:00,
2013-08-27 20:37:00,64.2,26.7,29.82,WSW,239,5.8,8.7,24,0.00,,,0.00,VWS V14.01,2013-08-28 03:37:00,
2013-08-27 20:43:00,64.0,26.5,29.82,WSW,249,8.1,10.5,24,0.00,,,0.00,VWS V14.01,2013-08-28 03:43:00,
2013-08-27 20:48:00,63.5,26.1,29.82,West,268,2.7,5.8,24,0.00,,,0.00,VWS V14.01,2013-08-28 03:48:00,
2013-08-27 20:53:00,63.3,25.9,29.82,SW,220,5.4,5.8,24,0.00,,,0.00,VWS V14.01,2013-08-28 03:53:00,
2013-08-27 20:59:00,63.1,25.8,29.82,WSW,245,2.2,4.0,24,0.00,,,0.00,VWS V14.01,2013-08-28 03:59:00,
2013-08-27 21:02:00,63.0,25.6,29.82,WSW,239,3.1,3.1,24,0.00,,,0.00,VWS V14.01,2013-08-28 04:02:00,
2013-08-27 21:03:00,63.0,25.6,29.82,SW,225,5.8,5.8,24,0.00,,,0.00,VWS V14.01,2013-08-28 04:03:00,
2013-08-27 21:05:00,63.0,25.6,29.82,SW,217,4.0,4.0,24,0.00,,,0.00,VWS V14.01,2013-08-28 04:05:00,
2013-08-27 21:07:00,63.0,25.6,29.82,SW,226,0.0,0.0,24,0.00,,,0.00,VWS V14.01,2013-08-28 04:07:00,
2013-08-27 21:09:00,63.0,25.6,29.82,West,267,0.0,0.0,24,0.00,,,0.00,VWS V14.01,2013-08-28 04:09:00,
2013-08-27 21:15:00,63.0,25.6,29.82,SW,225,3.6,4.0,24,0.00,,,0.00,VWS V14.01,2013-08-28 04:15:00,
2013-08-27 21:21:00,63.7,26.2,29.82,SW,234,8.1,9.2,24,0.00,,,0.00,VWS V14.01,2013-08-28 04:21:00,
2013-08-27 21:27:00,63.1,25.8,29.82,WSW,248,7.2,7.6,24,0.00,,,0.00,VWS V14.01,2013-08-28 04:27:00,
2013-08-27 21:32:00,63.0,25.6,29.82,SW,220,7.6,7.6,24,0.00,,,0.00,VWS V14.01,2013-08-28 04:32:00,
2013-08-27 21:38:00,62.6,25.3,29.82,WSW,237,6.7,6.7,24,0.00,,,0.00,VWS V14.01,2013-08-28 04:38:00,
2013-08-27 21:43:00,62.6,25.3,29.82,WSW,256,3.1,6.3,24,0.00,,,0.00,VWS V14.01,2013-08-28 04:43:00,
2013-08-27 21:48:00,62.4,26.2,29.82,SW,222,5.8,5.8,25,0.00,,,0.00,VWS V14.01,2013-08-28 04:48:00,
2013-08-27 21:53:00,62.2,26.0,29.82,WSW,239,0.0,3.1,25,0.00,,,0.00,VWS V14.01,2013-08-28 04:53:00,
2013-08-27 21:59:00,62.2,26.0,29.82,SW,227,4.0,5.4,25,0.00,,,0.00,VWS V14.01,2013-08-28 04:59:00,
2013-08-27 22:03:00,62.2,26.0,29.82,SW,225,0.0,0.0,25,0.00,,,0.00,VWS V14.01,2013-08-28 05:03:00,
2013-08-27 22:09:00,62.2,26.0,29.82,West,272,0.0,0.0,25,0.00,,,0.00,VWS V14.01,2013-08-28 05:09:00,
2013-08-27 22:14:00,62.1,25.9,29.82,WSW,243,2.2,3.1,25,0.00,,,0.00,VWS V14.01,2013-08-28 05:14:00,
2013-08-27 22:19:00,61.9,25.7,29.82,WNW,292,0.0,0.0,25,0.00,,,0.00,VWS V14.01,2013-08-28 05:19:00,
2013-08-27 22:24:00,61.5,25.4,29.82,WNW,295,0.0,0.0,25,0.00,,,0.00,VWS V14.01,2013-08-28 05:24:00,
2013-08-27 22:30:00,61.3,25.2,29.82,SW,226,4.5,4.5,25,0.00,,,0.00,VWS V14.01,2013-08-28 05:30:00,
2013-08-27 22:35:00,61.5,25.4,29.82,West,278,0.0,2.7,25,0.00,,,0.00,VWS V14.01,2013-08-28 05:35:00,
2013-08-27 22:40:00,61.5,25.4,29.82,WSW,254,0.0,0.0,25,0.00,,,0.00,VWS V14.01,2013-08-28 05:40:00,
2013-08-27 22:45:00,61.3,25.2,29.82,WSW,249,0.0,0.0,25,0.00,,,0.00,VWS V14.01,2013-08-28 05:45:00,
2013-08-27 22:51:00,61.0,24.9,29.82,WSW,253,0.0,0.0,25,0.00,,,0.00,VWS V14.01,2013-08-28 05:51:00,
2013-08-27 22:56:00,60.8,24.8,29.82,WSW,253,0.0,0.0,25,0.00,,,0.00,VWS V14.01,2013-08-28 05:56:00,
2013-08-27 23:01:00,60.6,24.6,29.82,WSW,254,0.0,0.0,25,0.00,,,0.00,VWS V14.01,2013-08-28 06:01:00,
2013-08-27 23:06:00,60.6,24.6,29.82,WSW,254,0.0,0.0,25,0.00,,,0.00,VWS V14.01,2013-08-28 06:06:00,
2013-08-27 23:11:00,60.6,24.6,29.85,WSW,254,0.0,0.0,25,0.00,,,0.00,VWS V14.01,2013-08-28 06:11:00,
2013-08-27 23:16:00,60.4,24.5,29.85,WSW,254,0.0,0.0,25,0.00,,,0.00,VWS V14.01,2013-08-28 06:16:00,
2013-08-27 23:22:00,60.4,24.5,29.85,WSW,258,0.0,0.0,25,0.00,,,0.00,VWS V14.01,2013-08-28 06:22:00,
2013-08-27 23:27:00,60.4,24.5,29.85,West,263,0.0,0.0,25,0.00,,,0.00,VWS V14.01,2013-08-28 06:27:00,
2013-08-27 23:33:00,60.3,24.3,29.85,West,266,0.0,0.0,25,0.00,,,0.00,VWS V14.01,2013-08-28 06:33:00,
2013-08-27 23:38:00,60.4,24.5,29.82,West,266,0.0,0.0,25,0.00,,,0.00,VWS V14.01,2013-08-28 06:38:00,
2013-08-27 23:43:00,60.4,24.5,29.82,West,266,0.0,0.0,25,0.00,,,0.00,VWS V14.01,2013-08-28 06:43:00,
2013-08-27 23:48:00,60.4,24.5,29.82,West,266,0.0,0.0,25,0.00,,,0.00,VWS V14.01,2013-08-28 06:48:00,
2013-08-27 23:54:00,60.4,24.5,29.85,West,266,0.0,0.0,25,0.00,,,0.00,VWS V14.01,2013-08-28 06:54:00,